STARLINK-3890, 52455

Orbit data source: Space-Track

STARLINK-3890, 52455 is a payload satellite owned by SpaceX/Seattle (US) in LEO that was launched on Fri, 06 May 2022 UTC via an FALCON 9 launch vehicle from the Air Force Eastern Test Range (AFETR). Payload-class satellites include a variety of spacecraft equipped with specific instruments for various scientific and technological missions. These include communications satellites like Starlink; space stations such as the ISS; scientific satellites like the Hubble; Earth observation satellites from companies like Planet Labs, Umbra, and HawkEye 360; GPS; miniature CubeSats for education and research; and military/defense satellites.

Loading next visibility...
Identifier
52455, 2022-049E
Orbit
LEO
Country
Flag of USUS
Related business
Manufacturer
SpaceX/Seattle
Mission
Operational Commercial Communications
Bus & Motor
STARLINK, Unknown motor
Mass
297 kg wet, ~220 kg dry
Launch date (UTC)
2022-05-06 (4 years ago)
Launch vehicle
FALCON 9
Launch site
Air Force Eastern Test Range (AFETR)
Object type
Payload
Rocket body
Debris
Shape & HBR
Box + 1 Pan, 10.1 m
Radar Cross Section
13.562 m², Large (>1 m²)

Expand to show TLE details & history
Last TLE update: 15 hours ago

TLE from 15 hours ago
0 STARLINK-3890
1 52455U 22049E   26206.61367724 -.00000511  00000-0 -14031-4 0  9992
2 52455  53.1599 169.6278 0001274  71.5851 288.5279 15.08838854232935
Epoch: 2026-07-25T14:43Z
TLE epoch observation values (Epoch: 2026-07-25T14:43:41.713Z)
Latitude
-0.00001°
Longitude
5.38055°
Altitude
540.358 km
Speed
7.594 km/s
True Right ascension
11h 18m 30s
True Declination
0° 00' 00"
Sunlit
Object was in daylight at epoch
Visualization orbit readout
Latitude
Unknown
Longitude
Unknown
Altitude
Unknown
Speed
Unknown
Apparent Right ascension
Unknown
Apparent Declination
Unknown
Sunlit
N/A
Visualization observer readout
Local Sidereal Time
19:22:40
Azimuth
Unknown
Elevation
Unknown
Doppler factor
Unknown
Orbital elements
Apogee altitude
540.882 km
Perigee altitude
539.12 km
Semi-major axis
6,918.138 km
Eccentricity
0.00013
Inclination
53.1599°
RAAN
169.6278°
Arg. of periapsis
71.5851°
True anomaly
288.51406°
Mean anomaly
288.5279°
Eccentric anomaly
288.52098°
Mean motion
3.77189 °/min
Orbital period
95.44 mins
BSTAR
-0.000014031
Loading maneuver chart data...
Computing Atmospheric mass density...
Loading historical data...
Loading historical data...
Loading historical data...
Loading historical data...
Loading historical data...
Loading historical data...
Loading historical data...

Documentation

Showing up to 5 results
|